RH
10 10 10 10 11 11 12 12 13 13 14 14 14 13 12 11 10 9 8 7 6 4 4 4 4 4 4 5 5 6 7 6 6 7 7 7 8 8 8 9 9 12 10 11 20 23 24 24 25 26 30 33 32 38 44 44 49 55 61 66 67 67 67 65 69 76 76 78 79 78 77 76 74 76 77 75 73 68 64 66 66 66 67 62 51 48 49 44
10 10 9 9 10 10 10 11 11 12 13 13 14 14 14 13 12 10 10 9 7 6 5 4 5 5 4 5 4 5 6 6 6 7 7 6 7 6 7 9 9 12 9 14 22 20 19 18 20 23 26 31 34 40 44 44 48 57 62 64 67 65 59 60 67 74 77 77 77 78 80 79 75 73 76 77 75 69 63 65 68 67 66 58 48 49 49 45
11 10 10 10 10 9 9 9 9 10 10 11 13 13 14 14 13 12 11 10 9 7 6 5 5 5 5 5 4 5 4 6 8 10 9 7 6 6 7 8 9 11 9 16 21 17 16 14 16 19 23 33 38 41 42 45 49 53 60 63 63 61 56 55 62 73 77 75 75 78 80 81 78 75 76 76 73 68 63 64 67 62 59 54 49 49 48 46
12 12 12 11 11 10 10 10 9 9 9 10 10 11 12 13 13 13 12 11 11 9 8 6 6 6 6 5 4 4 5 8 12 12 10 9 7 6 6 6 10 11 11 17 18 14 13 12 14 17 24 34 38 39 40 44 50 51 58 63 60 58 58 53 56 70 76 74 74 76 77 79 79 76 77 73 70 72 68 66 65 59 56 52 50 48 46 45
13 13 13 12 12 11 11 11 11 11 10 10 9 9 10 11 12 12 12 12 12 10 9 8 7 7 6 5 5 4 7 10 14 14 10 8 8 7 7 6 9 11 14 19 16 13 13 13 13 15 24 31 32 36 37 41 48 50 53 58 58 55 57 53 50 61 74 77 74 74 74 77 78 76 77 73 70 74 73 71 66 58 54 52 51 47 44 43
13 13 13 13 12 12 12 11 11 11 11 11 11 9 8 8 9 10 11 12 12 11 11 9 8 9 7 6 4 5 10 11 14 15 9 8 8 9 7 6 8 11 17 19 14 12 13 14 12 14 23 26 27 30 31 35 42 46 49 52 54 52 54 52 47 52 68 77 74 73 73 75 77 77 78 74 69 71 72 70 65 55 51 52 53 47 42 40
14 14 14 13 12 12 12 11 11 11 11 11 11 10 8 7 7 8 9 10 11 12 11 10 10 10 8 7 5 8 12 10 12 12 9 8 8 8 8 6 7 13 20 18 12 12 13 15 14 16 20 20 24 26 26 31 36 42 47 49 50 51 51 49 47 48 58 72 74 72 73 75 77 77 78 72 69 71 70 68 63 53 50 52 52 47 42 40
14 15 15 14 14 13 12 12 11 11 11 11 11 10 8 7 7 7 7 8 10 11 11 11 11 11 9 7 9 13 12 10 10 9 9 8 6 7 7 6 8 16 21 17 12 12 12 15 15 14 15 15 20 23 25 30 33 38 44 47 47 49 50 47 46 45 52 68 73 69 71 75 77 78 79 73 71 71 68 67 61 51 50 50 49 46 42 39
14 14 14 14 15 15 14 13 12 11 11 11 11 9 8 8 8 6 6 7 8 9 10 10 11 11 10 8 12 15 13 13 9 6 9 8 6 5 6 6 10 18 21 18 14 11 12 15 15 12 11 13 17 22 25 29 32 34 39 44 45 46 49 46 44 42 48 63 69 69 72 77 79 80 80 75 72 71 67 65 57 50 50 48 46 45 41 38
15 15 14 14 15 15 16 15 14 12 11 11 11 9 8 8 8 7 6 6 6 7 8 9 11 12 11 11 14 16 15 15 10 8 8 6 5 5 7 9 13 19 20 18 16 12 13 14 13 12 11 12 16 20 23 27 33 35 34 39 42 43 46 44 42 40 44 59 67 68 72 76 79 80 78 76 74 72 68 62 55 50 50 47 45 44 41 40
15 15 15 14 14 15 15 16 15 14 13 12 11 9 8 8 8 7 6 6 6 6 7 8 10 11 12 14 18 20 18 17 13 11 9 6 7 8 11 12 13 17 17 17 17 13 14 15 13 12 11 11 13 19 22 23 31 36 33 34 38 40 44 41 40 40 44 58 66 66 71 75 79 80 77 76 74 74 69 60 54 51 50 48 47 44 40 43
14 14 14 14 14 14 15 16 16 16 14 13 12 10 8 9 8 7 7 7 6 7 6 7 9 10 13 17 17 18 19 18 16 14 12 10 11 12 13 11 12 14 14 17 18 15 15 15 14 11 11 12 12 15 21 20 25 33 33 34 37 38 41 40 41 41 45 59 67 67 74 78 79 80 79 77 75 75 69 60 57 54 50 50 49 43 39 43
14 14 14 14 14 14 15 16 16 16 15 14 13 10 9 9 9 9 8 8 7 6 6 7 8 8 15 21 17 14 17 18 16 16 15 13 13 15 13 10 11 11 13 19 19 17 16 15 13 11 11 13 13 15 20 21 23 29 31 33 38 39 39 40 40 41 45 60 66 68 79 85 80 78 78 77 76 77 70 62 60 57 53 52 49 42 40 42
15 14 14 14 14 14 14 16 16 16 15 15 13 12 11 10 9 9 9 8 7 6 7 7 7 11 17 21 17 13 17 17 16 17 15 13 14 15 12 9 10 10 13 19 21 19 16 13 10 11 12 12 17 19 18 21 22 24 28 30 36 37 37 39 38 39 46 57 62 64 75 83 80 78 77 76 78 78 72 66 63 60 57 55 49 43 41 40
15 15 14 13 13 13 14 15 16 16 15 14 13 13 12 11 10 10 8 7 7 6 7 7 7 13 16 18 16 12 14 16 15 16 15 14 15 17 14 11 11 11 11 16 20 18 15 12 10 12 13 12 18 19 16 20 21 21 28 32 34 34 37 42 38 38 48 57 57 57 67 78 78 78 77 77 79 78 76 72 66 65 63 58 51 45 44 41
16 15 14 13 13 13 13 14 15 15 14 12 12 13 12 12 10 9 8 6 7 6 7 10 10 12 16 21 20 12 12 17 16 16 15 14 16 18 15 11 11 11 11 14 17 16 15 12 10 12 13 13 15 16 17 21 21 20 27 32 30 30 39 46 40 37 48 56 55 54 64 76 77 75 79 80 78 79 81 76 67 66 67 60 52 47 46 41
16 14 14 13 13 13 13 13 14 14 13 12 12 12 11 11 9 8 8 6 7 6 9 16 14 11 15 21 20 12 14 21 19 16 15 16 19 19 16 13 11 11 11 13 14 15 16 13 11 12 12 13 13 14 18 21 20 20 24 28 28 28 34 44 43 38 44 52 55 54 60 72 74 75 78 79 81 83 82 76 67 63 64 61 54 50 48 41
15 14 14 13 13 14 13 13 13 13 12 11 11 12 11 10 8 8 9 9 9 9 13 15 13 14 16 16 17 16 19 23 21 17 16 19 21 19 18 16 12 11 11 12 14 15 16 14 13 12 12 13 12 12 18 19 17 19 23 25 25 25 29 38 44 41 41 45 51 55 58 65 70 74 77 78 85 84 78 76 72 64 60 60 56 52 50 44
14 14 13 13 13 12 12 13 12 13 12 12 12 11 11 9 9 10 12 13 12 15 21 16 11 18 21 17 19 24 25 23 21 21 20 20 21 21 20 18 14 12 12 14 15 16 16 15 14 14 12 13 12 11 15 19 18 19 23 21 24 29 30 37 44 42 40 41 49 57 59 62 67 73 78 78 80 80 79 80 77 69 62 59 56 54 52 47
14 13 13 13 13 12 13 12 13 13 12 14 13 12 16 15 17 20 17 12 11 14 21 18 12 18 23 20 21 24 23 21 23 26 24 21 22 24 23 21 16 16 16 16 16 16 16 15 14 15 12 11 12 11 15 21 23 24 23 18 26 37 35 36 43 45 42 42 47 54 57 61 64 68 73 74 74 75 78 80 78 75 68 62 57 55 53 49
13 13 13 14 13 13 13 13 14 14 13 15 12 15 23 19 19 24 17 11 11 9 14 16 14 17 23 23 22 19 19 20 24 29 27 23 24 26 26 23 19 19 17 16 16 16 15 14 14 14 12 12 12 13 19 25 25 26 25 20 27 37 36 36 39 40 41 44 49 50 52 57 60 66 72 72 72 72 73 76 77 76 73 69 64 59 56 52
14 15 15 14 13 14 14 14 15 14 14 14 10 16 22 15 14 17 13 14 15 9 9 11 11 16 20 22 20 17 19 19 21 28 28 24 25 26 26 23 21 20 17 16 17 17 16 14 14 12 13 15 13 14 23 29 27 26 27 25 28 34 37 40 35 31 35 40 45 47 49 51 54 65 73 68 62 64 66 69 74 78 75 72 70 65 60 56
16 17 17 16 15 14 15 15 15 15 15 13 14 20 20 12 12 13 12 17 18 11 8 8 8 14 16 18 17 15 17 16 17 27 27 24 27 27 27 24 22 22 20 19 19 18 17 13 13 13 14 17 16 16 22 28 28 27 28 28 31 32 35 39 32 26 28 32 38 43 43 44 47 58 68 66 57 55 58 62 70 79 77 73 70 67 66 64
18 18 18 18 15 15 16 15 16 16 16 15 16 19 16 13 13 13 13 17 19 14 9 9 9 13 16 17 15 12 16 16 19 27 25 24 27 28 29 25 23 26 24 22 21 20 18 14 15 15 14 16 18 19 22 26 28 25 26 32 37 34 31 35 31 23 24 28 34 40 41 39 40 47 55 59 57 53 55 59 64 72 75 75 71 68 72 72
18 18 19 18 17 17 17 17 18 18 17 17 18 15 15 16 15 13 13 19 22 15 10 8 9 14 16 15 14 15 20 20 23 29 24 23 29 29 30 28 26 31 31 26 23 21 19 17 17 17 16 17 22 26 22 23 26 23 22 28 34 33 30 33 31 24 24 28 30 33 37 40 39 40 42 47 53 56 56 58 59 63 70 74 73 69 70 71
18 18 18 18 18 18 19 20 18 16 18 21 19 16 17 16 15 14 18 26 26 16 12 10 12 16 15 14 16 15 20 19 24 32 23 23 32 30 30 31 29 33 34 30 25 21 20 20 20 20 20 19 24 29 24 21 23 21 18 19 27 34 33 35 32 24 23 27 29 27 31 41 44 40 41 46 52 56 56 58 58 60 65 71 73 70 69 69
20 19 18 19 18 19 21 20 16 18 24 24 18 16 17 16 14 16 24 33 27 18 18 17 18 22 18 18 17 15 21 20 21 26 22 26 33 29 29 33 32 34 33 31 28 22 19 22 24 23 25 23 23 27 25 21 19 22 22 17 22 33 37 39 34 23 23 29 31 26 25 37 47 47 48 51 56 57 56 59 60 60 60 66 71 71 70 70
20 20 20 21 20 20 20 18 19 22 24 21 17 16 18 16 15 21 34 43 32 22 22 17 17 21 17 16 16 18 25 23 20 23 21 25 29 26 29 34 35 34 33 32 28 22 21 26 30 26 26 25 22 24 26 22 21 29 32 23 21 28 34 38 32 22 25 31 31 27 24 33 48 54 51 52 59 61 57 57 60 59 57 59 67 72 72 71
20 20 21 21 20 21 19 18 20 22 19 17 18 18 18 18 20 27 39 44 32 22 21 18 16 18 17 17 17 19 22 22 24 26 22 23 25 26 30 33 34 32 33 35 28 22 22 28 32 27 23 24 22 23 27 24 25 34 36 29 24 26 30 34 29 24 30 35 34 30 25 30 47 56 54 55 61 61 58 56 57 58 58 57 60 68 74 70
21 22 22 22 23 23 21 21 19 19 18 17 19 19 18 21 27 36 40 38 30 22 20 20 19 19 19 19 18 19 20 23 26 25 22 23 24 26 28 31 33 31 33 33 28 29 29 26 28 25 23 23 21 23 28 26 26 34 37 32 28 28 28 28 27 26 31 36 36 34 29 30 43 57 61 63 64 61 58 57 57 56 57 61 62 69 76 71
22 23 23 23 25 23 24 26 23 20 18 18 21 21 22 27 34 45 43 33 27 23 21 22 21 19 19 21 22 21 21 24 24 22 23 24 25 27 28 31 33 32 35 34 28 33 35 29 30 29 26 25 23 24 28 26 27 33 38 34 29 28 26 25 25 26 31 36 35 35 33 30 39 55 61 62 64 61 58 59 60 55 54 61 65 70 75 72
23 24 23 23 23 23 25 27 25 23 20 20 24 23 30 40 42 44 37 25 24 25 24 26 24 21 22 27 30 26 23 24 23 24 25 25 25 26 26 30 32 31 37 37 28 29 35 32 31 32 29 27 26 27 29 30 29 32 35 33 31 30 25 23 24 23 27 33 34 35 35 30 37 52 57 58 61 60 58 57 53 50 51 56 63 69 72 70
23 24 24 23 22 22 23 22 23 25 23 23 27 27 37 48 45 38 28 22 26 26 24 26 27 27 29 32 34 31 29 27 24 27 32 31 31 30 29 31 33 33 38 39 28 27 35 34 29 31 29 26 27 29 31 32 31 31 32 30 32 31 26 23 23 22 23 28 32 33 34 35 43 53 54 55 58 59 59 52 41 41 45 50 61 69 68 69
23 24 24 24 24 23 22 22 21 24 26 28 33 39 46 48 39 31 27 25 26 25 22 23 26 30 31 33 35 34 33 31 29 32 37 37 35 35 33 32 34 36 40 40 33 31 37 36 30 28 27 24 24 31 37 37 32 30 28 28 30 30 29 26 21 22 25 27 28 28 30 36 44 50 50 52 55 57 58 49 37 38 42 47 62 67 61 67
22 24 25 26 26 25 24 24 23 24 29 32 40 51 52 44 34 31 30 26 24 24 21 21 26 31 31 32 35 36 33 33 33 34 37 35 35 38 38 34 34 37 38 40 38 36 37 36 31 25 23 22 22 28 37 39 34 29 26 28 30 31 33 31 25 25 29 28 23 24 31 39 43 46 47 50 54 55 53 46 37 38 43 49 62 67 61 64
22 25 27 27 26 26 26 26 26 28 33 37 45 50 42 33 29 28 29 26 26 29 25 23 28 32 31 29 32 33 31 31 34 36 37 37 37 41 40 35 33 35 36 38 39 38 37 37 32 23 21 22 21 23 27 30 33 32 28 27 29 31 34 34 31 28 29 29 24 24 34 41 45 50 48 47 53 55 53 47 40 39 45 51 61 69 68 67
22 27 29 26 24 24 24 25 27 30 35 40 44 40 30 26 26 24 25 27 29 31 29 30 32 33 32 29 30 30 27 29 35 37 37 38 37 38 35 32 31 33 34 35 37 38 39 38 33 24 22 22 20 19 20 23 28 32 30 28 30 34 35 34 33 31 28 28 25 26 33 35 41 52 50 44 49 54 54 49 42 41 46 51 60 71 73 70
20 26 27 24 21 20 20 25 28 32 39 41 37 32 28 27 27 26 28 31 31 32 36 40 37 35 35 33 34 32 27 30 37 37 37 37 36 34 31 30 30 31 31 32 38 41 40 41 36 27 24 22 19 18 19 20 22 27 30 30 30 33 35 36 37 36 31 27 24 27 34 35 37 47 53 48 46 50 54 51 44 44 49 51 58 71 75 70
21 26 28 25 22 18 18 24 28 35 45 45 36 32 31 28 28 31 32 34 34 35 41 44 39 37 39 38 37 34 28 31 36 36 37 38 36 33 30 30 29 29 30 32 37 40 40 41 39 32 25 23 20 18 19 20 19 22 27 28 29 33 36 35 34 35 32 29 27 25 34 43 43 48 57 55 48 49 55 52 45 46 52 53 55 64 71 71
22 28 30 24 21 18 17 23 29 35 41 41 35 33 33 30 30 32 35 37 38 38 40 41 38 40 42 40 39 34 28 32 36 36 39 39 36 33 31 29 29 29 28 30 34 36 37 38 40 36 27 22 21 19 21 22 20 20 24 27 30 34 37 34 31 32 32 31 29 26 41 58 54 50 56 56 52 53 56 51 44 45 51 54 55 57 61 67
24 31 29 22 19 17 17 24 31 33 34 34 31 31 33 34 32 32 35 38 39 39 40 39 38 39 41 41 40 36 31 35 38 38 40 39 36 35 31 28 27 27 28 31 33 35 36 36 37 35 27 24 24 21 21 23 22 20 21 24 29 32 36 37 33 31 30 31 28 28 50 70 62 53 52 50 51 56 57 50 43 44 49 52 55 54 55 62
25 31 27 19 17 18 22 26 26 28 32 32 30 30 30 33 34 33 34 37 40 42 42 42 41 41 41 41 41 38 36 39 42 41 41 40 36 34 32 29 28 27 28 31 32 32 34 35 36 36 33 30 27 22 20 21 22 22 21 24 28 32 34 35 34 33 31 30 27 31 56 73 65 57 55 49 49 55 58 52 43 43 48 50 53 54 53 58
23 24 21 16 14 18 26 29 22 21 25 26 27 30 30 30 33 34 34 36 39 41 42 43 44 45 44 43 42 41 42 44 44 43 42 39 35 32 31 31 30 30 31 32 33 31 31 35 38 40 38 33 27 22 21 22 22 23 23 24 27 31 33 32 34 34 32 30 27 34 59 75 68 60 57 52 51 53 55 51 44 43 47 48 51 54 53 55
20 18 17 13 13 18 26 31 26 20 19 21 24 26 28 30 31 32 34 36 37 38 40 41 41 44 45 44 45 45 46 48 46 44 43 39 34 31 31 31 32 32 32 32 34 32 33 37 41 43 40 34 30 26 23 23 22 22 26 26 26 29 32 32 33 33 34 35 30 32 56 73 68 61 58 54 53 53 53 50 45 44 45 46 48 50 53 54
22 23 20 12 12 18 21 24 24 20 16 18 20 20 23 27 29 30 31 33 35 36 39 40 40 40 41 42 44 43 44 47 47 44 42 39 35 31 31 31 32 31 30 31 31 32 37 41 45 50 47 40 39 35 28 25 22 21 25 26 25 25 26 29 31 32 33 35 34 41 61 73 68 64 61 57 55 54 52 50 47 45 45 46 46 47 51 52
25 28 24 16 15 17 17 17 20 20 19 19 19 17 18 20 22 26 27 28 30 32 35 38 40 40 40 41 43 43 42 44 44 43 43 41 38 34 31 31 30 29 30 32 30 30 36 38 41 51 53 49 49 44 35 30 26 23 24 24 23 23 24 25 27 30 32 33 42 56 65 67 67 64 60 58 56 53 51 50 50 49 47 45 45 46 48 51
21 21 19 20 20 19 18 18 19 20 20 20 20 18 18 17 17 20 22 24 26 27 29 33 37 41 43 43 44 45 44 44 44 44 44 42 40 36 33 32 31 29 29 30 29 30 34 35 35 41 45 45 46 43 36 33 31 28 25 23 23 23 24 26 25 29 32 33 47 64 63 60 64 62 58 59 58 55 53 51 52 52 49 46 45 45 46 49
18 16 14 18 22 21 20 20 20 20 20 19 19 19 18 19 19 19 19 20 23 25 28 30 32 36 41 44 47 48 48 48 47 46 44 43 41 37 36 35 32 30 30 29 28 29 33 37 34 33 34 36 39 40 36 33 30 28 26 24 23 24 25 26 27 30 31 32 48 65 66 64 65 61 59 59 57 58 56 53 52 52 52 51 48 46 47 48
18 17 12 14 20 19 16 17 21 23 21 20 22 22 21 20 20 20 20 19 20 22 26 30 30 31 36 41 46 50 52 52 52 49 46 44 42 38 38 38 35 33 32 31 29 26 29 36 34 30 31 31 33 37 37 34 31 29 28 25 24 25 26 28 29 29 30 35 48 60 64 66 64 60 60 57 56 58 58 54 53 51 49 51 51 49 49 48
22 21 17 17 20 18 16 19 21 22 22 23 24 23 23 23 22 22 22 22 22 20 22 26 27 29 34 37 40 44 46 48 49 46 42 41 40 37 37 38 35 34 33 32 31 28 29 35 33 29 30 29 28 30 32 33 33 30 29 26 25 26 27 27 29 31 38 49 54 57 62 65 62 59 59 57 56 57 57 56 54 48 45 47 50 52 52 51
17 17 18 22 21 18 20 21 21 24 25 26 26 24 24 24 23 23 23 22 24 24 21 22 24 25 30 34 36 36 35 36 37 35 32 33 32 31 32 32 30 32 34 32 31 29 28 32 31 27 29 30 28 26 26 27 28 28 29 28 27 28 30 31 31 35 47 59 60 60 64 64 60 58 59 58 57 57 56 54 50 46 44 44 46 49 50 51
18 15 16 22 22 19 22 22 21 26 26 22 24 26 25 24 23 26 26 22 23 25 23 24 26 25 28 32 32 31 29 29 29 26 25 25 25 24 25 25 24 28 32 30 29 28 29 31 28 24 26 29 27 26 26 24 23 24 26 27 29 32 35 36 36 38 46 56 59 63 66 64 59 58 59 59 58 57 56 52 49 48 46 43 43 44 45 47